Location: Starlight Observatory
(38.4029°N, 85.8936°W)
Time: 17:34:24
(UTC-04:00)

Amateur Radio Satellites - All Passes

Search period start: 26 April 2017 17:04
Search period end: 27 April 2017 17:04
Location: Starlight Observatory, 38.4029°N, 85.8936°W

Satellite Date Start Highest point End Downlink Frequencies (MHz)
Time Altitude Azimuth
YUBILEINY 26 Apr 17:05:43 17:14:30 81° 265° (W) 17:23:17 435.215
MOZHAYETS 4 26 Apr 17:08:09 17:12:46 72° 101° (ESE) 17:17:23
ITAMSAT 1 26 Apr 17:09:35 17:14:03 29° 263° (W) 17:18:33 435.822/435.867
BEESAT 26 Apr 17:12:50 17:17:27 50° 288° (WNW) 17:22:03 436.000
KKS-1 26 Apr 17:23:22 17:26:10 16° 93° (E) 17:28:56 437.445
ITUPSAT 1 26 Apr 17:54:11 17:57:42 21° 294° (WNW) 18:01:15 437.325
AO-7 26 Apr 17:55:43 18:02:10 25° 265° (W) 18:08:40 .
STARS 26 Apr 17:55:49 17:58:26 15° 93° (E) 18:01:00 437.465
CUBESAT XI-V 26 Apr 17:58:40 18:03:08 41° 98° (E) 18:07:34 437.345
SO-50 26 Apr 18:02:18 18:04:36 14° 251° (WSW) 18:06:51 436.795
XW-2F 26 Apr 18:15:50 18:18:17 17° 69° (ENE) 18:20:45 145.980 - 146.000
CUTE-I 26 Apr 18:16:07 18:20:24 25° 66° (ENE) 18:24:39 437.470
NUDT-PHONESAT 26 Apr 18:27:37 18:30:14 19° 69° (ENE) 18:32:52 437.300
RS-15 26 Apr 18:30:01 18:41:58 65° 247° (WSW) 18:53:18 29.354- 29.394
DOVE 4 26 Apr 18:34:28 18:39:41 60° 74° (ENE) 18:44:50 437.250
MOZHAYETS 4 26 Apr 18:47:55 18:49:18 11° 297° (WNW) 18:50:40
KKS-1 26 Apr 18:58:43 19:02:53 41° 288° (WNW) 19:07:02 437.445
XW-2D 26 Apr 19:03:56 19:07:39 78° 75° (ENE) 19:11:24 145.860 - 145.880
YUBILEINY 26 Apr 19:05:53 19:09:48 14° 284° (WNW) 19:13:44 435.215
XW-2B 26 Apr 19:10:51 19:14:35 88° 248° (WSW) 19:18:21 145.730 - 145.750
HO-68 26 Apr 19:10:55 19:16:43 28° 61° (ENE) 19:22:31 435.675
KAITUO 1B 26 Apr 19:20:46 19:24:27 82° 258° (WSW) 19:28:10 145.475/437.950
LilacSat-2 26 Apr 19:21:45 19:25:27 58° 260° (W) 19:29:11 437.200
XW-2C 26 Apr 19:22:50 19:26:31 59° 260° (W) 19:30:13 145.795 - 145.815
STARS 26 Apr 19:30:49 19:34:56 42° 288° (WNW) 19:39:02 437.465
CUBESAT XI-V 26 Apr 19:36:51 19:40:11 19° 294° (WNW) 19:43:29 437.345
XW-2F 26 Apr 19:48:59 19:52:12 28° 263° (W) 19:55:27 145.980 - 146.000
CUTE-I 26 Apr 19:55:12 20:00:11 40° 262° (W) 20:05:11 437.470
AAUSAT CUBESAT 2 26 Apr 19:58:14 19:59:35 11° 64° (ENE) 20:00:56 437.432
NUDT-PHONESAT 26 Apr 20:01:00 20:03:59 24° 264° (W) 20:07:00 437.300
CUTE 1.7 + AOD 2 26 Apr 20:02:24 20:06:23 43° 73° (ENE) 20:10:24 437.475
NO-84 26 Apr 20:04:20 20:07:57 42° 131° (SE) 20:11:18 435.350 FM
JUGNU 26 Apr 20:07:18 20:09:31 12° 180° (S) 20:11:45 437.505
STRAND 1 26 Apr 20:09:07 20:12:43 19° 93° (E) 20:16:18 437.568
XW-2A 26 Apr 20:11:24 20:14:42 56° 76° (ENE) 20:18:00 145.665 - 145.685
DOVE 4 26 Apr 20:14:31 20:17:39 16° 269° (W) 20:20:47 437.250
SEEDS 26 Apr 20:22:31 20:26:30 46° 74° (ENE) 20:30:33 437.485
M-CUBED/EXP-1 PRIME 26 Apr 20:36:45 20:39:56 22° 98° (E) 20:42:55 437.505
Oscar 11 26 Apr 20:38:31 20:40:30 13° 65° (ENE) 20:42:29 .
RS-15 26 Apr 20:48:31 20:51:45 11° 267° (W) 20:54:57 29.354- 29.394
O/OREOS (USA 219) 26 Apr 20:49:37 20:53:51 35° 63° (ENE) 20:58:01 437.305
UWE-3 26 Apr 20:54:14 20:58:20 45° 73° (ENE) 21:02:20 435.000/436.395/437.385
HO-68 26 Apr 20:57:01 21:03:59 56° 259° (WSW) 21:11:01 435.675
CUBEBUG 2 26 Apr 21:07:03 21:11:27 74° 258° (WSW) 21:15:43 437.445
AAUSAT CUBESAT 2 26 Apr 21:30:27 21:34:30 57° 260° (W) 21:38:37 437.432
SRMSAT 26 Apr 21:30:32 21:32:08 11° 173° (S) 21:33:43 437.500
CUTE 1.7 + AOD 2 26 Apr 21:40:09 21:42:24 14° 268° (W) 21:44:41 437.475
NO-84 26 Apr 21:42:48 21:45:36 21° 325° (NW) 21:48:13 435.350 FM
STRAND 1 26 Apr 21:47:14 21:52:05 46° 289° (WNW) 21:56:56 437.568
ZACube-1 26 Apr 21:49:34 21:53:47 72° 259° (W) 21:57:56 437.345
AO-73 26 Apr 21:56:29 22:00:38 66° 259° (W) 22:04:46 145.935
AO-85 26 Apr 22:00:15 22:03:45 29° 52° (NE) 22:07:22 145.980
SEEDS 26 Apr 22:00:32 22:02:26 13° 269° (W) 22:04:21 437.485
M-CUBED/EXP-1 PRIME 26 Apr 22:10:50 22:14:21 27° 296° (WNW) 22:17:39 437.505
Oscar 11 26 Apr 22:11:57 22:16:09 53° 260° (W) 22:20:22 .
DELFI C3 26 Apr 22:14:34 22:18:19 42° 73° (ENE) 22:22:07 145.870
O/OREOS (USA 219) 26 Apr 22:29:38 22:32:58 20° 259° (W) 22:36:16 437.305
BEESAT 3 26 Apr 22:32:34 22:34:32 13° 44° (NE) 22:36:30 437.485
UWE-3 26 Apr 22:32:51 22:34:58 13° 268° (W) 22:37:05 435.000/436.395/437.385
OBJECT BX 26 Apr 22:55:01 22:58:39 76° 259° (WSW) 23:02:17 145.990 - 145.960
SRMSAT 26 Apr 23:18:12 23:20:24 12° 183° (S) 23:22:35 437.500
PRISM 26 Apr 23:22:30 23:26:38 65° 101° (ESE) 23:30:43 437.425
TIGRISAT 26 Apr 23:35:29 23:39:40 51° 100° (E) 23:43:53 435.000
ESTCUBE 1 26 Apr 23:36:32 23:40:12 25° 68° (ENE) 23:43:52 437.505/2401.250
AO-85 26 Apr 23:40:49 23:44:00 23° 247° (WSW) 23:47:19 145.980
DELFI C3 26 Apr 23:51:28 23:53:17 13° 268° (W) 23:55:08 145.870
VELOX 1 26 Apr 23:53:07 23:53:15 10° 62° (ENE) 23:53:23 145.980
UNISAT 6 26 Apr 23:56:40 00:00:58 82° 285° (WNW) 00:05:19 437.425
LO-87 26 Apr 23:58:29 00:02:07 82° 78° (ENE) 00:05:46 145.935 - 145.965
FO-29 27 Apr 00:00:37 00:05:50 70° 102° (ESE) 00:11:25 435.910
BEESAT 2 27 Apr 00:07:40 00:11:35 44° 55° (NE) 00:15:26 435.950
BEESAT 3 27 Apr 00:08:33 00:12:32 64° 242° (WSW) 00:16:28 437.485
AIST 2D 27 Apr 00:13:25 00:15:38 16° 94° (E) 00:17:51 435.315
QB50P2 27 Apr 00:16:59 00:17:49 10° 91° (E) 00:18:39 145.880/145.840
50 SAT 27 Apr 00:34:11 00:35:37 12° 67° (ENE) 00:37:04 437.505
NANOSAT C BR1 27 Apr 00:37:12 00:39:47 16° 93° (E) 00:42:20 145.865
DX 1 27 Apr 00:42:21 00:44:33 14° 64° (ENE) 00:46:43 434.975-435.025
SPROUT 27 Apr 00:50:25 00:54:23 39° 72° (ENE) 00:58:22 437.525
PRISM 27 Apr 01:00:55 01:01:19 10° 297° (WNW) 01:01:43 437.425
EO-79 27 Apr 01:04:02 01:07:55 36° 98° (E) 01:11:46 145.935-145.965
DUCHIFAT 1 27 Apr 01:05:59 01:09:42 30° 97° (E) 01:13:23 145.980
ESTCUBE 1 27 Apr 01:12:58 01:16:51 28° 264° (W) 01:20:46 437.505/2401.250
TIGRISAT 27 Apr 01:13:51 01:15:55 13° 295° (WNW) 01:17:58 435.000
VELOX 1 27 Apr 01:24:35 01:29:01 77° 256° (WSW) 01:33:31 145.980
UKube-1 27 Apr 01:42:47 01:46:53 42° 72° (ENE) 01:50:58 .
POLYITAN 1 27 Apr 01:43:07 01:47:19 75° 283° (WNW) 01:51:30 437.675
AIST 2D 27 Apr 01:45:53 01:48:51 26° 288° (WNW) 01:51:49 435.315
BEESAT 2 27 Apr 01:46:39 01:48:56 15° 251° (WSW) 01:51:12 435.950
FO-29 27 Apr 01:47:55 01:50:25 14° 298° (WNW) 01:52:58 435.910
QB50P2 27 Apr 01:49:48 01:53:56 57° 286° (WNW) 01:58:03 145.880/145.840
50 SAT 27 Apr 02:05:00 02:08:12 35° 262° (W) 02:11:27 437.505
BUGSAT 1 27 Apr 02:06:53 02:10:46 47° 100° (E) 02:14:38 437.445
NANOSAT C BR1 27 Apr 02:11:44 02:15:37 38° 288° (WNW) 02:19:28 145.865
DX 1 27 Apr 02:15:57 02:20:14 53° 259° (W) 02:24:33 434.975-435.025
Oscar 19 27 Apr 02:18:12 02:22:12 22° 94° (E) 02:26:09 437.125/150
Gurwin Techsat 1B 27 Apr 02:22:38 02:25:12 14° 91° (E) 02:27:46 435.225
SPROUT 27 Apr 02:27:45 02:30:25 16° 267° (W) 02:33:06 437.525
EO-79 27 Apr 02:40:36 02:43:23 17° 293° (WNW) 02:46:09 145.935-145.965
NO-84 27 Apr 02:40:44 02:42:16 13° 30° (NNE) 02:43:47 435.350 FM
BEESAT 27 Apr 02:41:54 02:44:47 16° 64° (ENE) 02:47:39 436.000
DUCHIFAT 1 27 Apr 02:42:05 02:45:08 20° 292° (WNW) 02:48:11 145.980
PCSat 27 Apr 02:44:49 02:49:49 40° 111° (ESE) 02:54:53 145.827
UKube-1 27 Apr 03:20:32 03:23:04 15° 267° (W) 03:25:37 .
ITUPSAT 1 27 Apr 03:20:54 03:25:17 39° 71° (ENE) 03:29:41 437.325
BUGSAT 1 27 Apr 03:43:58 03:45:42 13° 295° (WNW) 03:47:26 437.445
ITAMSAT 1 27 Apr 03:46:26 03:48:10 12° 90° (E) 03:49:54 435.822/435.867
Oscar 19 27 Apr 03:56:45 04:01:38 42° 290° (WNW) 04:06:29 437.125/150
Gurwin Techsat 1B 27 Apr 04:00:19 04:05:36 68° 286° (WNW) 04:10:52 435.225
AO-7 27 Apr 04:05:09 04:11:23 23° 94° (E) 04:17:33 .
MOZHAYETS 4 27 Apr 04:08:17 04:12:44 56° 74° (ENE) 04:17:12
YUBILEINY 27 Apr 04:10:37 04:17:03 24° 81° (E) 04:23:28 435.215
NO-84 27 Apr 04:17:14 04:20:01 50° 228° (SW) 04:22:46 435.350 FM
BEESAT 27 Apr 04:17:29 04:22:06 52° 260° (W) 04:26:44 436.000
KKS-1 27 Apr 04:20:44 04:22:59 14° 64° (ENE) 04:25:15 437.445
PCSat 27 Apr 04:28:42 04:33:19 28° 308° (NW) 04:37:58 145.827
STARS 27 Apr 04:51:55 04:53:49 13° 64° (ENE) 04:55:43 437.465
ITUPSAT 1 27 Apr 04:59:45 05:03:13 20° 266° (W) 05:06:42 437.325
CUBESAT XI-V 27 Apr 05:00:25 05:04:34 34° 71° (ENE) 05:08:46 437.345
ITAMSAT 1 27 Apr 05:22:58 05:28:08 75° 286° (WNW) 05:33:17 435.822/435.867
MOZHAYETS 4 27 Apr 05:48:18 05:50:13 12° 269° (W) 05:52:09
KKS-1 27 Apr 05:54:41 05:59:04 55° 259° (W) 06:03:28 437.445
AO-7 27 Apr 05:56:28 06:04:44 72° 291° (WNW) 06:13:01 .
YUBILEINY 27 Apr 06:04:22 06:13:00 67° 280° (W) 06:21:41 435.215
STARS 27 Apr 06:25:18 06:29:39 59° 259° (W) 06:34:01 437.465
SO-50 27 Apr 06:33:25 06:37:15 26° 112° (ESE) 06:41:02 436.795
DOVE 4 27 Apr 06:36:47 06:39:37 16° 91° (E) 06:42:20 437.250
CUBESAT XI-V 27 Apr 06:38:24 06:41:58 22° 266° (W) 06:45:36 437.345
RS-15 27 Apr 06:41:07 06:50:01 25° 100° (E) 06:59:06 29.354- 29.394
XW-2B 27 Apr 06:47:17 06:48:06 11° 91° (E) 06:48:57 145.730 - 145.750
KAITUO 1B 27 Apr 06:55:47 06:56:39 11° 91° (E) 06:57:31 145.475/437.950
LilacSat-2 27 Apr 06:57:19 06:59:44 16° 93° (E) 07:02:09 437.200
XW-2C 27 Apr 06:57:52 07:00:09 15° 93° (E) 07:02:26 145.795 - 145.815
M-CUBED/EXP-1 PRIME 27 Apr 07:20:02 07:23:52 26° 63° (ENE) 07:27:45 437.505
XW-2F 27 Apr 07:22:08 07:25:30 29° 97° (E) 07:28:51 145.980 - 146.000
STRAND 1 27 Apr 07:23:30 07:27:34 25° 66° (ENE) 07:31:38 437.568
NUDT-PHONESAT 27 Apr 07:32:13 07:35:34 31° 97° (E) 07:38:55 437.300
AO-7 27 Apr 07:51:41 07:56:04 16° 311° (NW) 08:00:29 .
ISS 27 Apr 07:53:51 07:54:57 11° 128° (SE) 07:56:03 437.550
YUBILEINY 27 Apr 08:08:53 08:11:37 12° 301° (WNW) 08:14:22 435.215
XW-2D 27 Apr 08:11:50 08:15:35 55° 285° (WNW) 08:19:19 145.860 - 145.880
CUTE-I 27 Apr 08:13:14 08:18:34 88° 283° (WNW) 08:23:53 437.470
DOVE 4 27 Apr 08:13:14 08:17:33 40° 288° (WNW) 08:21:36 437.250
SO-50 27 Apr 08:13:23 08:17:34 33° 308° (NW) 08:21:43 436.795
XW-2B 27 Apr 08:18:52 08:22:31 46° 286° (WNW) 08:26:11 145.730 - 145.750
HO-68 27 Apr 08:26:33 08:32:51 32° 96° (E) 08:39:07 435.675
KAITUO 1B 27 Apr 08:27:16 08:30:52 45° 286° (WNW) 08:34:30 145.475/437.950
LilacSat-2 27 Apr 08:30:39 08:34:04 31° 288° (WNW) 08:37:29 437.200
XW-2C 27 Apr 08:31:00 08:34:25 32° 288° (WNW) 08:37:51 145.795 - 145.815
RS-15 27 Apr 08:48:55 09:00:59 84° 301° (WNW) 09:13:27 29.354- 29.394
M-CUBED/EXP-1 PRIME 27 Apr 08:54:00 08:58:06 32° 259° (W) 09:02:17 437.505
XW-2F 27 Apr 08:56:52 08:59:24 17° 292° (WNW) 09:01:55 145.980 - 146.000
CUBEBUG 2 27 Apr 08:59:37 09:02:59 23° 96° (E) 09:06:24 437.445
STRAND 1 27 Apr 09:01:49 09:06:31 37° 262° (W) 09:11:14 437.568
Tancredo 1 27 Apr 09:02:35 09:05:40 89° 312° (NW) 09:08:46 437.200
NUDT-PHONESAT 27 Apr 09:06:57 09:09:13 16° 292° (WNW) 09:11:27 437.300
XW-2A 27 Apr 09:07:08 09:10:29 77° 101° (ESE) 09:13:50 145.665 - 145.685
AAUSAT CUBESAT 2 27 Apr 09:14:23 09:17:47 24° 95° (E) 09:21:10 437.432
CUTE 1.7 + AOD 2 27 Apr 09:23:59 09:28:17 75° 283° (WNW) 09:32:33 437.475
ISS 27 Apr 09:27:47 09:31:02 65° 323° (NW) 09:34:16 437.550
ZACube-1 27 Apr 09:39:32 09:42:55 23° 95° (E) 09:46:21 437.345
SEEDS 27 Apr 09:42:57 09:47:13 71° 282° (WNW) 09:51:26 437.485
AO-73 27 Apr 09:45:59 09:49:28 24° 96° (E) 09:52:59 145.935
CUTE-I 27 Apr 09:56:22 09:57:47 11° 301° (WNW) 09:59:12 437.470
Oscar 11 27 Apr 10:00:42 10:04:32 30° 96° (E) 10:08:22 .
PRISM 27 Apr 10:10:05 10:13:53 37° 72° (ENE) 10:17:44 437.425
FO-29 27 Apr 10:12:05 10:17:07 26° 67° (ENE) 10:21:44 435.910
HO-68 27 Apr 10:13:53 10:20:40 47° 293° (WNW) 10:27:27 435.675
UWE-3 27 Apr 10:21:02 10:25:11 63° 284° (WNW) 10:29:24 435.000/436.395/437.385
TIGRISAT 27 Apr 10:32:38 10:36:40 37° 72° (ENE) 10:40:38 435.000
CUBEBUG 2 27 Apr 10:36:07 10:39:32 25° 290° (WNW) 10:43:01 437.445
Tancredo 1 27 Apr 10:40:08 10:41:57 14° 338° (NNW) 10:43:47 437.200
AAUSAT CUBESAT 2 27 Apr 10:49:42 10:53:09 25° 290° (WNW) 10:56:36 437.432
UNISAT 6 27 Apr 10:53:40 10:58:02 71° 76° (ENE) 11:02:21 437.425
O/OREOS (USA 219) 27 Apr 10:59:57 11:04:24 55° 107° (ESE) 11:08:55 437.305
RS-15 27 Apr 11:05:19 11:15:36 30° 327° (NNW) 11:26:02 29.354- 29.394
ISS 27 Apr 11:06:18 11:08:02 14° 341° (NNW) 11:09:46 437.550
ZACube-1 27 Apr 11:15:34 11:19:08 27° 290° (WNW) 11:22:45 437.345
AO-73 27 Apr 11:22:07 11:25:36 25° 290° (WNW) 11:29:08 145.935
DELFI C3 27 Apr 11:27:22 11:31:24 88° 105° (ESE) 11:35:22 145.870
NANOSAT C BR1 27 Apr 11:29:52 11:30:36 10° 63° (ENE) 11:31:20 145.865
PCSat 27 Apr 11:34:14 11:38:44 26° 51° (NE) 11:43:11 145.827
Oscar 11 27 Apr 11:37:08 11:40:29 22° 292° (WNW) 11:43:50 .
PRISM 27 Apr 11:46:40 11:49:16 16° 266° (W) 11:51:55 437.425
EO-79 27 Apr 11:55:15 11:58:34 23° 69° (ENE) 12:01:53 145.935-145.965
FO-29 27 Apr 11:55:56 12:02:01 43° 261° (W) 12:07:28 435.910
DUCHIFAT 1 27 Apr 11:56:48 11:59:48 19° 68° (ENE) 12:02:48 145.980
OBJECT BX 27 Apr 11:58:51 12:02:22 44° 286° (WNW) 12:05:51 145.990 - 145.960
TIGRISAT 27 Apr 12:10:31 12:13:26 17° 266° (W) 12:16:21 435.000
AO-85 27 Apr 12:15:08 12:17:12 13° 110° (ESE) 12:19:13 145.980
AIST 2D 27 Apr 12:17:56 12:21:24 82° 77° (ENE) 12:24:53 435.315
POLYITAN 1 27 Apr 12:33:44 12:37:54 64° 75° (ENE) 12:42:04 437.675
QB50P2 27 Apr 12:40:19 12:44:32 84° 77° (ENE) 12:48:46 145.880/145.840
O/OREOS (USA 219) 27 Apr 12:41:29 12:44:11 15° 304° (NW) 12:46:52 437.305
BUGSAT 1 27 Apr 12:55:09 12:58:40 27° 70° (ENE) 13:02:09 437.445
LO-87 27 Apr 13:00:17 13:03:49 62° 284° (WNW) 13:07:18 145.935 - 145.965
NANOSAT C BR1 27 Apr 13:01:34 13:05:45 65° 259° (WSW) 13:09:56 145.865
ESTCUBE 1 27 Apr 13:06:00 13:10:32 66° 101° (ESE) 13:15:02 437.505/2401.250
VELOX 1 27 Apr 13:16:45 13:20:11 22° 95° (E) 13:23:36 145.980
PCSat 27 Apr 13:17:08 13:22:18 45° 249° (WSW) 13:27:25 145.827
RS-15 27 Apr 13:26:09 13:34:05 18° 3° (N) 13:41:56 29.354- 29.394
EO-79 27 Apr 13:30:35 13:34:11 27° 264° (W) 13:37:47 145.935-145.965
50 SAT 27 Apr 13:30:47 13:32:46 14° 94° (E) 13:34:44 437.505
DUCHIFAT 1 27 Apr 13:31:28 13:35:14 32° 263° (W) 13:39:00 145.980
Oscar 19 27 Apr 13:33:30 13:37:50 28° 67° (ENE) 13:42:12 437.125/150
Gurwin Techsat 1B 27 Apr 13:41:49 13:45:38 20° 64° (ENE) 13:49:27 435.225
AO-85 27 Apr 13:53:01 13:57:14 52° 304° (NW) 14:01:12 145.980
Tancredo 1 27 Apr 13:54:46 13:56:05 12° 19° (NNE) 13:57:23 437.200
BEESAT 3 27 Apr 13:57:03 14:00:26 28° 113° (ESE) 14:03:50 437.485
BEESAT 2 27 Apr 14:00:44 14:01:21 10° 107° (ESE) 14:01:59 435.950
DX 1 27 Apr 14:05:50 14:09:35 28° 97° (E) 14:13:18 434.975-435.025
SPROUT 27 Apr 14:12:52 14:17:07 86° 286° (WNW) 14:21:22 437.525
ISS 27 Apr 14:21:21 14:23:23 15° 22° (NNE) 14:25:24 437.550
BUGSAT 1 27 Apr 14:30:46 14:33:58 21° 265° (W) 14:37:10 437.445
ESTCUBE 1 27 Apr 14:45:01 14:46:45 12° 297° (WNW) 14:48:28 437.505/2401.250
VELOX 1 27 Apr 14:52:45 14:56:38 31° 290° (WNW) 15:00:30 145.980
ITAMSAT 1 27 Apr 15:02:16 15:05:35 17° 63° (ENE) 15:08:55 435.822/435.867
AO-7 27 Apr 15:02:43 15:09:34 30° 58° (ENE) 15:16:25 .
50 SAT 27 Apr 15:02:44 15:05:44 27° 289° (WNW) 15:08:42 437.505
SO-50 27 Apr 15:06:04 15:09:09 18° 45° (NE) 15:12:13 436.795
UKube-1 27 Apr 15:06:45 15:11:06 84° 283° (WNW) 15:15:23 .
Oscar 19 27 Apr 15:12:24 15:17:00 33° 263° (W) 15:21:40 437.125/150
Gurwin Techsat 1B 27 Apr 15:20:03 15:25:11 49° 261° (W) 15:30:21 435.225
ITUPSAT 1 27 Apr 15:25:25 15:26:29 11° 90° (E) 15:27:33 437.325
Tancredo 1 27 Apr 15:29:28 15:32:31 58° 37° (NE) 15:35:34 437.200
BEESAT 2 27 Apr 15:34:39 15:38:33 59° 303° (WNW) 15:42:32 435.950
BEESAT 3 27 Apr 15:34:45 15:37:59 24° 310° (NW) 15:41:15 437.485
RS-15 27 Apr 15:41:14 15:52:07 34° 37° (NE) 16:02:33 29.354- 29.394
DX 1 27 Apr 15:42:08 15:45:37 24° 292° (WNW) 15:49:06 434.975-435.025
ISS 27 Apr 15:57:01 16:00:17 86° 36° (NE) 16:03:32 437.550
MOZHAYETS 4 27 Apr 16:06:02 16:08:40 15° 92° (E) 16:11:17
YUBILEINY 27 Apr 16:16:16 16:24:53 58° 78° (ENE) 16:33:31 435.215
BEESAT 27 Apr 16:18:53 16:23:27 43° 99° (E) 16:27:58 436.000
ITAMSAT 1 27 Apr 16:39:29 16:44:34 56° 259° (W) 16:49:41 435.822/435.867
SO-50 27 Apr 16:45:31 16:49:55 55° 243° (WSW) 16:54:19 436.795
